PulseSat

PulseSat

RADUGA 27 [-]

Last updated on March 23, 2019, 3:11 a.m. UTC

1 21132U 91014A   19080.83278584  .00000091  00000-0  00000+0 0  9996
2 21132  15.4460 359.5960 0005654 351.4247 173.6788  1.00187818102797
UTC
Height (km)
Latitude
Longitude
Inclination
Orbital Period

Next 30 passes for location: Hong Kong

Rise time Rise Azimuth (degrees) Set time Set Azimuth (degrees) Duration Max altitude (degrees)

No matching passes for this satellites

PulseSat

PulseSat is the new satellites software and hardware trackering solution by Pulsely.
Satellite Two Line Element Set source: US Air Force Space Command

Download PulseSat for iOS
© 2017 Pulsely Limited